Latest Coastal Weather Observations for Northern Endeavour (near 10.5S 126E)

IDD60701

Issued at 7:55 pm CST Wednesday 1 October 2014 (issued every 10 minutes, with the page automatically refreshed every 10 minutes)

About coastal observations | Map of coastal stations | Coastal observations for NT | Marine services | Other Formats
Station Details ID: 200212 Name: NORTHERN ENDEAVOUR Lat: -10.61 Lon: 125.98 Height: 16.0 m
Data from the previous 72 hours. | See also: Recent months for locations in Northern Territory
Date/Time
CST
Temp

°C
Wind Pressure Rain
since 9am
mm
Weather Cloud Vis
km
Sea
Height
m
Swell
Dir
 
Speed
knots
Gust
knots
hPa Trend Height
m
Period
s
Dir
01/07:50pm 27.5 E 3 4 1012.1 - - - - 10 - - - -
01/07:40pm 27.6 ESE 2 3 1011.9 - - - - 10 - - - -
01/07:30pm 27.6 ESE 4 3 1011.8 - - - - 10 - - - -
01/07:20pm 27.7 E 3 3 1011.5 - - - - 8 - - - -
01/07:10pm 27.7 ESE 2 4 1011.4 - - - - 10 - - - -
01/07:00pm 27.9 E 3 3 1011.3 - - - - 10 - - - -
01/06:50pm 28.3 E 4 4 1011.3 - - - - 10 - - - -
01/06:40pm 28.7 ENE 4 7 1011.2 - - - - 10 - - - -
01/06:30pm 29.2 NNE 4 7 1011.1 - - - - 10 - - - -
01/06:20pm 28.6 - 3 5 1011.0 - - - - 10 - - - -
01/06:10pm 28.7 NNE 4 5 1010.9 - - - - 10 - - - -
01/06:00pm 28.8 NNE 3 5 1010.8 - - - - 10 - - - -
01/05:50pm 28.9 NE 4 5 1010.8 - - - - 10 - - - -
01/05:40pm 28.4 N 4 5 1010.8 - - - - 10 - - - -
01/05:30pm 28.7 NNE 4 7 1010.7 - - - - 10 - - - -
01/05:20pm 28.7 NE 5 7 1010.7 - - - - 10 - - - -
01/05:10pm 28.6 NE 7 9 1010.7 - - - Partly cloudy 10 - - - -
01/05:00pm 27.9 NNE 6 9 1010.7 - - - Partly cloudy 10 - - - -
01/04:50pm 27.9 NNE 6 8 1010.8 - - - Partly cloudy 10 - - - -
01/04:40pm 27.8 NE 7 9 1010.9 - - - Partly cloudy 10 - - - -
01/04:30pm 28.2 NNE 6 9 1010.9 - - - Partly cloudy 10 - - - -
01/04:20pm 28.2 NNE 7 11 1011.0 - - - Partly cloudy 10 - - - -
01/04:10pm 27.5 NNE 6 8 1011.0 - - - Partly cloudy 10 - - - -
01/04:00pm 29.1 NE 7 8 1011.0 - - - Partly cloudy 10 - - - -
01/03:50pm 29.8 NE 8 9 1011.1 - - - - 10 - - - -
01/03:40pm 28.4 NNE 6 8 1011.0 - - - Partly cloudy 10 - - - -
01/03:30pm 28.3 NNE 6 8 1011.0 - - - Partly cloudy 10 - - - -
01/03:20pm 28.0 NNE 6 6 1011.1 - - - Partly cloudy 10 - - - -
01/03:10pm 27.6 N 6 8 1011.3 - - - Partly cloudy 10 - - - -
01/03:00pm 27.6 N 8 10 1011.3 - - - - 10 - - - -
01/02:50pm 27.4 NNE 7 8 1011.4 - - - Partly cloudy 10 - - - -
01/02:40pm 27.7 NE 6 7 1011.6 - - - Partly cloudy 9 - - - -
01/02:30pm 27.6 NE 6 8 1011.7 - - - Partly cloudy 5 - - - -
01/02:20pm 27.4 ENE 8 10 1011.8 - - - Partly cloudy 10 - - - -
01/02:10pm 28.0 ENE 8 11 1011.9 - - - Partly cloudy 10 - - - -
01/02:00pm 28.4 ENE 7 9 1012.0 - - - Partly cloudy 10 - - - -
01/01:50pm 28.6 ENE 7 9 1012.2 - - - Partly cloudy 10 - - - -
01/01:40pm 28.2 ENE 6 8 1012.3 - - - Partly cloudy 10 - - - -
01/01:30pm 28.1 ENE 7 8 1012.5 - - - Partly cloudy 10 - - - -
01/01:20pm 28.6 ENE 7 9 1012.7 - - - - 10 - - - -
01/01:10pm 28.0 NE 7 9 1012.8 - - - - 10 - - - -
01/01:00pm 28.1 ENE 6 9 1013.0 - - - - 10 - - - -
01/12:50pm 28.9 ENE 8 8 1013.3 - - - - 10 - - - -
01/12:40pm 28.5 ENE 7 9 1013.4 - - - - 10 - - - -
01/12:30pm 28.7 ENE 8 9 1013.7 - - - - 10 - - - -
01/12:20pm 27.9 ENE 6 8 1013.8 - - - - 10 - - - -
01/12:10pm 28.0 NE 6 9 1014.1 - - - - 10 - - - -
01/12:00pm 27.6 NNE 6 8 1014.2 - - - - 10 - - - -
01/11:50am 27.2 NNE 6 5 1014.3 - - - - 10 - - - -
01/11:40am 27.4 NNE 7 8 1014.5 - - - - 10 - - - -
01/11:30am 27.3 NNE 8 8 1014.6 - - - - 10 - - - -
01/11:20am 27.4 NNE 7 10 1014.7 - - - - 10 - - - -
01/11:10am 27.6 NE 8 8 1014.8 - - - - 10 - - - -
01/11:00am 27.6 NE 8 8 1014.8 - - - - 10 - - - -
01/10:50am 27.4 NNE 8 9 1014.9 - - - - 10 - - - -
01/10:40am 27.7 NE 6 8 1014.9 - - - - 10 - - - -
01/10:30am 27.9 NE 7 8 1014.9 - - - Partly cloudy 10 - - - -
01/10:20am 27.4 NNE 7 7 1014.9 - - - Partly cloudy 10 - - - -
01/10:10am 27.3 NNE 7 8 1014.8 - - - Partly cloudy 10 - - - -
01/10:00am 27.2 NNE 7 9 1014.9 - - - Partly cloudy 10 - - - -
01/09:50am 27.3 NNE 7 9 1014.8 - - - - 10 - - - -
01/09:40am 27.4 NE 7 9 1014.8 - - - Partly cloudy 10 - - - -
01/09:30am 27.4 NE 8 10 1014.8 - - - - 10 - - - -
01/09:20am 27.4 NE 8 10 1014.9 - - - Partly cloudy 10 - - - -
01/09:10am 27.2 NNE 7 9 1014.9 - - - Partly cloudy 10 - - - -
01/09:00am 27.8 NE 8 7 1014.7 - - - Partly cloudy 10 - - - -
01/08:50am 28.3 NE 8 9 1014.7 - - - Partly cloudy 10 - - - -
01/08:40am 27.6 ENE 6 9 1014.6 - - - Partly cloudy 10 - - - -
01/08:30am 27.9 ENE 6 7 1014.3 - - - Partly cloudy 10 - - - -
01/08:20am 27.4 NE 6 7 1014.2 - - - Partly cloudy 10 - - - -
01/08:10am 27.3 NE 6 8 1014.1 - - - - 10 - - - -
01/08:00am 26.9 NNE 7 8 1014.0 - - - Partly cloudy 10 - - - -
01/07:50am 27.0 NNE 6 10 1013.9 - - - Partly cloudy 10 - - - -
01/07:40am 27.0 ENE 6 7 1013.8 - - - Cloudy 10 - - - -
01/07:30am 26.9 N 5 5 1013.5 - - - Partly cloudy 10 - - - -
01/07:20am 26.8 N 5 6 1013.3 - - - Cloudy 10 - - - -
01/07:10am 26.8 NNE 3 3 1013.3 - - - Partly cloudy 10 - - - -
01/07:00am 26.7 NE 3 4 1013.2 - - - Partly cloudy 10 - - - -
01/06:50am 26.7 ENE 4 5 1013.1 - - - Partly cloudy 10 - - - -
01/06:40am 26.7 NE 4 6 1013.0 - - - Partly cloudy 10 - - - -
01/06:30am 26.7 NE 4 6 1013.0 - - - Partly cloudy 10 - - - -
01/06:20am 26.7 ENE 5 5 1012.9 - - - Partly cloudy 10 - - - -
01/06:10am 26.6 ENE 5 6 1012.9 - - - Partly cloudy 10 - - - -
01/06:00am 26.7 ENE 5 6 1012.8 - - - Partly cloudy 10 - - - -
01/05:50am 26.7 ENE 4 6 1012.6 - - - - 10 - - - -
01/05:40am 26.6 NE 3 5 1012.3 - - - Partly cloudy 10 - - - -
01/05:30am 26.6 NE 4 4 1012.2 - - - Partly cloudy 10 - - - -
01/05:20am 26.7 ENE 4 6 1012.2 - - - Partly cloudy 10 - - - -
01/05:10am 26.8 ENE 7 8 1012.2 - - - - 10 - - - -
01/05:00am 26.7 NE 6 6 1012.0 - - - Partly cloudy 10 - - - -
01/04:50am 26.7 NE 6 7 1011.9 - - - Partly cloudy 10 - - - -
01/04:40am 26.7 NE 3 5 1011.8 - - - Partly cloudy 10 - - - -
01/04:30am 26.7 NNE 5 6 1011.8 - - - Partly cloudy 10 - - - -
01/04:20am 26.7 NNE 6 6 1011.8 - - - Partly cloudy 10 - - - -
01/04:10am 26.7 NNE 5 6 1011.7 - - - Partly cloudy 10 - - - -
01/04:00am 26.8 NE 7 6 1011.7 - - - Partly cloudy 10 - - - -
01/03:50am 26.8 NE 6 7 1011.8 - - - Partly cloudy 10 - - - -
01/03:40am 26.7 NE 8 8 1011.7 - - - Partly cloudy 10 - - - -
01/03:30am 26.7 NE 6 8 1011.6 - - - Partly cloudy 10 - - - -
01/03:20am 26.7 ENE 7 7 1011.5 - - - Partly cloudy 10 - - - -
01/03:10am 26.7 NE 6 6 1011.7 - - - Partly cloudy 10 - - - -
01/03:00am 26.7 NE 5 6 1011.6 - - - Partly cloudy 10 - - - -
01/02:50am 26.8 ENE 7 8 1011.7 - - - Partly cloudy 10 - - - -
01/02:40am 26.9 ENE 8 9 1011.8 - - - - 10 - - - -
01/02:30am 26.8 ENE 6 9 1011.8 - - - - 10 - - - -
01/02:20am 26.8 ENE 7 6 1011.9 - - - - 10 - - - -
01/02:10am 26.9 ENE 9 8 1012.0 - - - Partly cloudy 10 - - - -
01/02:00am 26.9 ENE 9 11 1012.2 - - - Partly cloudy 10 - - - -
01/01:50am 26.8 ENE 9 12 1012.3 - - - Partly cloudy 10 - - - -
01/01:40am 27.0 ENE 10 11 1012.4 - - - - 10 - - - -
01/01:30am 26.9 E 9 10 1012.5 - - - - 10 - - - -
01/01:20am 27.0 ENE 9 11 1012.7 - - - - 10 - - - -
01/01:10am 27.0 E 10 13 1012.7 - - - - 10 - - - -
01/01:00am 27.0 E 10 13 1012.8 - - - - 10 - - - -
01/12:50am 27.1 E 10 11 1012.9 - - - - 10 - - - -
01/12:40am 27.0 ENE 9 10 1012.7 - - - - 10 - - - -
01/12:30am 27.2 E 9 13 1013.0 - - - - 10 - - - -
01/12:20am 27.2 E 10 12 1013.1 - - - - 10 - - - -
01/12:10am 27.0 E 9 11 1013.1 - - - - 10 - - - -
01/12:00am 27.1 E 9 11 1013.2 - - - - 10 - - - -
 
Date/Time
CST
Temp

°C
Wind Pressure Rain
since 9am
mm
Weather Cloud Vis
km
Sea
Height
m
Swell
Dir
 
Speed
knots
Gust
knots
hPa Trend Height
m
Period
s
Dir
30/11:50pm 27.1 E 10 12 1013.3 - - - - 10 - - - -
30/11:40pm 27.1 E 10 11 1013.3 - - - - 10 - - - -
30/11:30pm 27.1 E 10 10 1013.4 - - - - 10 - - - -
30/11:20pm 27.1 E 10 13 1013.5 - - - - 10 - - - -
30/11:10pm 27.2 E 9 14 1013.5 - - - - 10 - - - -
30/11:00pm 27.1 E 9 10 1013.5 - - - - 10 - - - -
30/10:50pm 27.2 E 9 10 1013.6 - - - - 10 - - - -
30/10:40pm 27.3 E 9 12 1013.6 - - - - 10 - - - -
30/10:30pm 27.2 E 9 10 1013.6 - - - - 10 - - - -
30/10:20pm 27.2 E 10 10 1013.7 - - - Partly cloudy 10 - - - -
30/10:10pm 27.2 E 10 11 1013.7 - - - Partly cloudy 10 - - - -
30/10:00pm 27.3 E 10 11 1013.6 - - - Partly cloudy 10 - - - -
30/09:50pm 27.2 E 10 12 1013.6 - - - - 10 - - - -
30/09:40pm 27.2 E 10 12 1013.5 - - - - 10 - - - -
30/09:30pm 27.3 E 10 12 1013.4 - - - Partly cloudy 10 - - - -
30/09:20pm 27.2 E 10 11 1013.4 - - - Partly cloudy 10 - - - -
30/09:10pm 27.2 E 9 10 1013.3 - - - Partly cloudy 10 - - - -
30/09:00pm 27.3 E 10 10 1013.2 - - - - 10 - - - -
30/08:50pm 27.2 E 9 10 1013.1 - - - - 10 - - - -
30/08:40pm 27.4 E 9 12 1013.0 - - - - 10 - - - -
30/08:30pm 27.5 E 9 9 1012.9 - - - - 10 - - - -
30/08:20pm 27.4 E 9 12 1012.6 - - - - 10 - - - -
30/08:10pm 27.4 E 8 11 1012.5 - - - - 10 - - - -
30/08:00pm 27.4 E 7 9 1012.3 - - - - 10 - - - -
30/07:50pm 27.6 E 7 9 1012.2 - - - - 10 - - - -
30/07:40pm 27.6 E 7 10 1012.1 - - - - 10 - - - -
30/07:30pm 27.4 E 7 7 1011.9 - - - - 10 - - - -
30/07:20pm 27.5 E 7 8 1011.7 - - - - 10 - - - -
30/07:10pm 27.3 E 7 8 1011.5 - - - - 10 - - - -
30/07:00pm 27.4 E 7 9 1011.3 - - - - 10 - - - -
30/06:50pm 27.8 E 8 9 1011.3 - - - - 10 - - - -
30/06:40pm 28.2 E 8 10 1011.2 - - - - 10 - - - -
30/06:30pm 28.4 E 8 10 1011.0 - - - - 10 - - - -
30/06:20pm 28.2 ENE 7 7 1010.8 - - - - 10 - - - -
30/06:10pm 27.8 NE 7 9 1010.6 - - - - 10 - - - -
30/06:00pm 28.2 E 8 10 1010.6 - - - - 10 - - - -
30/05:50pm 28.4 E 8 10 1010.6 - - - - 10 - - - -
30/05:40pm 28.3 E 7 11 1010.6 - - - - 10 - - - -
30/05:30pm 28.5 E 7 9 1010.5 - - - - 10 - - - -
30/05:20pm 28.7 E 7 9 1010.5 - - - - 10 - - - -
30/05:10pm 28.3 E 6 7 1010.5 - - - - 10 - - - -
30/05:00pm 28.1 ENE 6 9 1010.4 - - - - 10 - - - -
30/04:50pm 27.9 NE 7 9 1010.3 - - - - 10 - - - -
30/04:40pm 28.0 ENE 7 10 1010.5 - - - - 10 - - - -
30/04:30pm 28.3 E 7 9 1010.5 - - - - 10 - - - -
30/04:20pm 28.3 E 7 10 1010.6 - - - - 10 - - - -
30/04:10pm 28.2 E 7 8 1010.6 - - - - 10 - - - -
30/04:00pm 28.1 ENE 9 9 1010.8 - - - - 10 - - - -
30/03:50pm 28.2 ENE 7 10 1010.8 - - - - 10 - - - -
30/03:40pm 27.9 ENE 9 10 1010.8 - - - - 10 - - - -
30/03:30pm 27.8 ENE 10 11 1010.9 - - - - 10 - - - -
30/03:20pm 27.9 ENE 9 12 1011.0 - - - - 10 - - - -
30/03:10pm 28.0 NE 8 8 1011.1 - - - - 10 - - - -
30/03:00pm 28.1 NE 8 9 1011.0 - - - - 10 - - - -
30/02:50pm 28.1 ENE 8 10 1011.0 - - - - 10 - - - -
30/02:40pm 28.0 NE 8 10 1011.0 - - - - 10 - - - -
30/02:30pm 28.2 ENE 8 11 1011.1 - - - - 10 - - - -
30/02:20pm 28.1 ENE 8 8 1011.3 - - - Partly cloudy 10 - - - -
30/02:10pm 28.6 ENE 10 15 1011.5 - - - Partly cloudy 10 - - - -
30/02:00pm 28.1 ENE 10 11 1011.6 - - - Partly cloudy 10 - - - -
30/01:50pm 27.9 NE 11 14 1011.8 - - - - 10 - - - -
30/01:40pm 27.8 NE 12 12 1012.0 - - - Partly cloudy 10 - - - -
30/01:30pm 27.4 NE 11 14 1012.1 - - - Partly cloudy 10 - - - -
30/01:20pm 27.4 NE 12 11 1012.3 - - - Partly cloudy 10 - - - -
30/01:10pm 27.6 NE 12 16 1012.4 - - - - 10 - - - -
30/01:00pm 27.6 NE 12 11 1012.6 - - - Partly cloudy 10 - - - -
30/12:50pm 27.5 NE 11 14 1012.8 - - - Partly cloudy 10 - - - -
30/12:40pm 27.6 NE 11 14 1013.0 - - - Partly cloudy 10 - - - -
30/12:30pm 27.4 NE 9 13 1013.1 - - - - 10 - - - -
30/12:20pm 27.5 NE 9 13 1013.2 - - - Partly cloudy 10 - - - -
30/12:10pm 27.5 NE 9 11 1013.4 - - - Partly cloudy 10 - - - -
30/12:00pm 27.3 NE 9 11 1013.6 - - - Partly cloudy 10 - - - -
30/11:50am 27.6 NE 9 12 1013.7 - - - Partly cloudy 10 - - - -
30/11:40am 27.3 NE 8 11 1013.9 - - - Partly cloudy 10 - - - -
30/11:30am 27.3 NE 8 9 1014.1 - - - Partly cloudy 10 - - - -
30/11:20am 27.4 NE 8 10 1014.2 - - - - 10 - - - -
30/11:10am 27.4 NE 9 11 1014.4 - - - Partly cloudy 10 - - - -
30/11:00am 27.4 NE 9 11 1014.4 - - - Partly cloudy 10 - - - -
30/10:50am 27.3 NNE 9 12 1014.3 - - - Partly cloudy 10 - - - -
30/10:40am 27.2 NE 9 13 1014.4 - - - - 10 - - - -
30/10:30am 27.4 NNE 11 11 1014.4 - - - - 10 - - - -
30/10:20am 27.2 NNE 9 9 1014.5 - - - Partly cloudy 10 - - - -
30/10:10am 27.3 NNE 11 14 1014.5 - - - Partly cloudy 10 - - - -
30/10:00am 27.6 NNE 12 13 1014.5 - - - Partly cloudy 10 - - - -
30/09:50am 27.5 NNE 11 12 1014.5 - - - Partly cloudy 10 - - - -
30/09:40am 27.4 NNE 12 13 1014.4 - - - Partly cloudy 10 - - - -
30/09:30am 27.5 N 9 11 1014.5 - - - Partly cloudy 10 - - - -
30/09:20am 27.2 N 9 12 1014.2 - - - - 10 - - - -
30/09:10am 27.1 NNE 9 12 1014.1 - - - - 10 - - - -
30/09:00am 27.2 NNE 9 11 1014.1 - - - - 10 - - - -
30/08:50am 27.2 NNE 9 12 1014.0 - - - - 10 - - - -
30/08:40am 27.1 NNE 10 11 1014.0 - - - - 10 - - - -
30/08:30am 27.2 NNE 10 13 1013.9 - - - - 10 - - - -
30/08:20am 27.2 NNE 10 13 1013.8 - - - - 10 - - - -
30/08:10am 27.2 NNE 12 14 1013.6 - - - - 10 - - - -
30/08:00am 27.2 NNE 11 16 1013.5 - - - - 10 - - - -
30/07:50am 27.1 NNE 10 13 1013.4 - - - - 10 - - - -
30/07:40am 27.1 NE 9 13 1013.3 - - - - 10 - - - -
30/07:30am 27.1 NE 10 12 1013.3 - - - - 10 - - - -
30/07:20am 27.1 NE 11 12 1013.2 - - - - 10 - - - -
30/07:10am 27.1 NE 10 13 1013.0 - - - - 10 - - - -
30/07:00am 27.1 NE 8 10 1012.9 - - - - 10 - - - -
30/06:50am 27.1 NE 9 12 1012.7 - - - - 10 - - - -
30/06:40am 27.1 NE 11 12 1012.6 - - - - 10 - - - -
30/06:30am 27.1 NE 11 13 1012.5 - - - - 10 - - - -
30/06:20am 27.2 NE 11 12 1012.3 - - - - 10 - - - -
30/06:10am 27.2 NE 11 12 1012.2 - - - - 10 - - - -
30/06:00am 27.2 NE 11 11 1012.1 - - - - 10 - - - -
30/05:50am 27.1 ENE 10 11 1012.0 - - - - 10 - - - -
30/05:40am 27.2 ENE 9 10 1012.1 - - - - 10 - - - -
30/05:30am 27.1 ENE 9 9 1012.0 - - - - 10 - - - -
30/05:20am 27.1 E 9 9 1012.0 - - - - 10 - - - -
30/05:10am 27.2 E 8 9 1011.9 - - - - 10 - - - -
30/05:00am 27.1 E 8 8 1011.9 - - - - 10 - - - -
30/04:50am 27.1 E 9 11 1011.9 - - - - 10 - - - -
30/04:40am 27.1 E 10 12 1011.9 - - - - 10 - - - -
30/04:30am 27.1 E 9 11 1011.8 - - - - 10 - - - -
30/04:20am 27.1 E 9 12 1011.8 - - - - 10 - - - -
30/04:10am 27.1 E 9 11 1011.8 - - - - 10 - - - -
30/04:00am 27.1 E 9 9 1011.8 - - - - 10 - - - -
30/03:50am 27.1 ESE 10 10 1011.8 - - - - 10 - - - -
30/03:40am 27.1 E 10 11 1011.8 - - - - 10 - - - -
30/03:30am 27.1 ESE 8 9 1011.8 - - - - 10 - - - -
30/03:20am 27.1 ESE 7 8 1011.8 - - - - 10 - - - -
30/03:10am 26.9 ESE 6 9 1011.8 - - - - 10 - - - -
30/03:00am 26.9 E 7 8 1011.7 - - - - 10 - - - -
30/02:50am 27.0 E 7 8 1011.8 - - - - 10 - - - -
30/02:40am 27.2 E 7 12 1011.7 - - - - 10 - - - -
30/02:30am 27.3 E 7 6 1011.7 - - - - 10 - - - -
30/02:20am 27.3 E 7 12 1011.7 - - - - 10 - - - -
30/02:10am 27.2 E 8 12 1011.7 - - - - 10 - - - -
30/02:00am 27.3 E 7 11 1011.7 - - - - 10 - - - -
30/01:50am 27.2 E 9 12 1011.8 - - - - 10 - - - -
30/01:40am 27.1 E 8 8 1011.8 - - - - 10 - - - -
30/01:30am 27.1 E 8 10 1011.9 - - - - 10 - - - -
30/01:20am 27.2 E 8 9 1011.9 - - - - 10 - - - -
30/01:10am 27.2 E 8 8 1012.1 - - - - 10 - - - -
30/01:00am 27.1 E 7 7 1012.1 - - - - 10 - - - -
30/12:50am 27.1 E 7 8 1012.2 - - - - 10 - - - -
30/12:40am 27.1 E 8 8 1012.3 - - - - 10 - - - -
30/12:30am 27.0 E 8 9 1012.4 - - - - 10 - - - -
30/12:20am 27.2 E 7 9 1012.6 - - - - 10 - - - -
30/12:10am 27.2 E 7 8 1012.6 - - - - 10 - - - -
30/12:00am 27.3 E 6 7 1012.7 - - - - 10 - - - -
 
Date/Time
CST
Temp

°C
Wind Pressure Rain
since 9am
mm
Weather Cloud Vis
km
Sea
Height
m
Swell
Dir
 
Speed
knots
Gust
knots
hPa Trend Height
m
Period
s
Dir
29/11:50pm 27.4 E 5 5 1012.7 - - - - 10 - - - -
29/11:40pm 27.4 ESE 6 6 1012.7 - - - - 10 - - - -
29/11:30pm 27.5 SE 6 6 1012.9 - - - - 10 - - - -
29/11:20pm 27.5 ESE 5 9 1012.9 - - - - 10 - - - -
29/11:10pm 27.6 ESE 5 8 1013.1 - - - - 10 - - - -
29/11:00pm 27.6 ESE 5 11 1013.2 - - - - 10 - - - -
29/10:50pm 27.6 ESE 5 8 1013.1 - - - - 10 - - - -
29/10:40pm 27.5 ESE 5 7 1013.2 - - - - 10 - - - -
29/10:30pm 27.6 SE 7 6 1013.1 - - - - 10 - - - -
29/10:20pm 27.6 SE 6 8 1013.1 - - - - 10 - - - -
29/10:10pm 27.6 SE 6 7 1013.1 - - - - 10 - - - -
29/10:00pm 27.6 SE 6 6 1012.9 - - - - 10 - - - -
29/09:50pm 27.7 SE 4 7 1012.7 - - - - 10 - - - -
29/09:40pm 27.7 SE 6 7 1012.7 - - - - 10 - - - -
29/09:30pm 27.6 SE 5 6 1012.7 - - - - 9 - - - -
29/09:20pm 27.7 SE 5 6 1012.6 - - - - 10 - - - -
29/09:10pm 27.6 SSE 5 5 1012.5 - - - - 10 - - - -
29/09:00pm 27.7 SSE 6 6 1012.4 - - - - 10 - - - -
29/08:50pm 27.6 SE 4 5 1012.3 - - - - 10 - - - -
29/08:40pm 27.6 SSE 3 5 1012.1 - - - - 10 - - - -
29/08:30pm 27.7 S 5 5 1011.9 - - - - 10 - - - -
29/08:20pm 27.7 S 4 6 1011.6 - - - - 10 - - - -
29/08:10pm 27.8 S 4 4 1011.5 - - - - 8 - - - -
29/08:00pm 27.8 S 4 5 1011.4 - - - - 10 - - - -
29/07:50pm 27.8 SSW 4 4 1011.3 - - - - 10 - - - -
29/07:40pm 28.0 S 4 5 1011.1 - - - - 10 - - - -
29/07:30pm 28.1 S 4 7 1011.0 - - - - 10 - - - -
29/07:20pm 28.2 S 5 6 1010.8 - - - - 10 - - - -
29/07:10pm 28.1 SSE 5 7 1010.8 - - - - 10 - - - -
29/07:00pm 28.4 SSE 5 6 1010.7 - - - - 10 - - - -
29/06:50pm 28.6 S 5 6 1010.5 - - - - 10 - - - -
29/06:40pm 29.1 SSE 6 7 1010.4 - - - - 10 - - - -
29/06:30pm 29.3 SSE 6 8 1010.3 - - - - 10 - - - -
29/06:20pm 28.9 SSE 5 7 1010.3 - - - - 10 - - - -
29/06:10pm 29.5 SSE 6 7 1010.2 - - - - 10 - - - -
29/06:00pm 30.0 S 6 9 1010.1 - - - - 10 - - - -
29/05:50pm 29.6 SSE 6 7 1010.1 - - - - 10 - - - -
29/05:40pm 29.1 SSE 5 6 1010.1 - - - - 10 - - - -
29/05:30pm 29.8 SSE 5 7 1010.0 - - - - 10 - - - -
29/05:20pm 28.8 SE 5 6 1010.0 - - - - 10 - - - -
29/05:10pm 29.1 SSE 4 5 1010.0 - - - - 10 - - - -
29/05:00pm 28.4 ESE 4 6 1010.0 - - - - 10 - - - -
29/04:50pm 28.4 ESE 3 5 1010.0 - - - - 10 - - - -
29/04:40pm 28.5 ESE 5 7 1010.1 - - - - 10 - - - -
29/04:30pm 28.2 ESE 5 6 1010.1 - - - - 10 - - - -
29/04:20pm 28.6 ESE 5 5 1010.1 - - - - 10 - - - -
29/04:10pm 28.1 ESE 4 3 1010.1 - - - - 10 - - - -
29/04:00pm 28.3 ESE 5 8 1010.3 - - - - 10 - - - -
29/03:50pm 28.3 ESE 5 8 1010.3 - - - - 10 - - - -
29/03:40pm 28.1 E 5 6 1010.4 - - - - 10 - - - -
29/03:30pm 28.2 E 5 6 1010.5 - - - - 10 - - - -
29/03:20pm 28.6 ESE 4 7 1010.5 - - - - 10 - - - -
29/03:10pm 29.2 SE 5 7 1010.6 - - - - 10 - - - -
29/03:00pm 29.1 ESE 5 8 1010.6 - - - - 10 - - - -
29/02:50pm 28.9 E 5 7 1010.8 - - - - 10 - - - -
29/02:40pm 28.6 ENE 4 7 1010.9 - - - - 10 - - - -
29/02:30pm 28.4 ENE 8 7 1011.2 - - - - 10 - - - -
29/02:20pm 29.2 E 7 9 1011.4 - - - - 10 - - - -
29/02:10pm 29.2 E 6 8 1011.5 - - - - 10 - - - -
29/02:00pm 29.5 E 6 9 1011.6 - - - - 10 - - - -
29/01:50pm 31.5 E 6 10 1011.8 - - - - 10 - - - -
29/01:40pm 31.1 E 5 6 1011.9 - - - - 10 - - - -
29/01:30pm 31.1 E 6 6 1012.0 - - - - 10 - - - -
29/01:20pm 30.9 E 5 7 1012.2 - - - - 10 - - - -
29/01:10pm 30.9 E 5 8 1012.4 - - - - 10 - - - -
29/01:00pm 30.5 E 4 6 1012.5 - - - - 10 - - - -
29/12:50pm 29.2 SE 4 6 1012.7 - - - - 10 - - - -
29/12:40pm 29.5 ESE 4 6 1012.9 - - - - 10 - - - -
29/12:30pm 29.2 ESE 4 3 1013.1 - - - - 10 - - - -
29/12:20pm 29.4 ESE 3 3 1013.3 - - - - 10 - - - -
29/12:10pm 29.5 ESE 4 4 1013.4 - - - - 10 - - - -
29/12:00pm 28.6 NE 2 3 1013.5 - - - - 10 - - - -
29/11:50am 27.4 SE 3 3 1013.7 - - - - 10 - - - -
29/11:40am 27.3 S 2 5 1014.0 - - - - 10 - - - -
29/11:30am 27.4 W 2 3 1013.9 - - - - 10 - - - -
29/11:20am 27.3 WSW 2 1 1014.1 - - - Partly cloudy 10 - - - -
29/11:10am 27.2 NW 3 3 1013.9 - - - - 10 - - - -
29/11:00am 27.1 WNW 4 4 1013.9 - - - - 10 - - - -
29/10:50am 27.1 W 4 5 1014.1 - - - - 10 - - - -
29/10:40am 27.1 NW 3 4 1014.2 - - - - 10 - - - -
29/10:30am 27.1 NW 3 3 1014.3 - - - - 10 - - - -
29/10:20am 27.1 NW 4 4 1014.3 - - - - 10 - - - -
29/10:10am 27.1 NW 4 4 1014.3 - - - - 10 - - - -
29/10:00am 27.1 NNW 3 5 1014.3 - - - Partly cloudy 10 - - - -
29/09:50am 27.0 NNW 5 4 1014.4 - - - Partly cloudy 10 - - - -
29/09:40am 27.0 NNW 5 7 1014.1 - - - Partly cloudy 10 - - - -
29/09:30am 27.0 NNW 5 5 1014.2 - - - Partly cloudy 10 - - - -
29/09:20am 27.0 NNW 4 6 1014.2 - - - Partly cloudy 10 - - - -
29/09:10am 27.0 NNW 5 5 1014.2 - - - Partly cloudy 10 - - - -
29/09:00am 26.9 NNW 6 6 1014.0 - - - Partly cloudy 10 - - - -
29/08:50am 26.9 NNW 6 7 1013.9 - - - Partly cloudy 10 - - - -
29/08:40am 26.8 NNW 6 6 1013.7 - - - Partly cloudy 10 - - - -
29/08:30am 26.8 NNW 7 6 1013.7 - - - Partly cloudy 10 - - - -
29/08:20am 26.8 NNW 7 9 1013.4 - - - Partly cloudy 10 - - - -
29/08:10am 26.8 NNW 8 8 1013.3 - - - Partly cloudy 10 - - - -
29/08:00am 26.7 NW 9 9 1013.1 - - - - 10 - - - -
29/07:50am 26.6 WNW 11 12 1012.6 - - - - 10 - - - -
29/07:40am 26.6 WNW 12 14 1012.3 - - - - 10 - - - -
29/07:30am 26.5 WNW 12 15 1012.1 - - - - 10 - - - -
29/07:20am 26.5 NW 10 13 1011.9 - - - - 10 - - - -
29/07:10am 26.5 NW 10 13 1011.8 - - - - 10 - - - -
29/07:00am 26.5 NW 9 14 1011.7 - - - - 10 - - - -
29/06:50am 26.5 NW 8 8 1011.6 - - - - 10 - - - -
29/06:40am 26.5 NW 10 11 1011.5 - - - - 10 - - - -
29/06:30am 26.4 NW 10 13 1011.4 - - - - 10 - - - -
29/06:20am 26.4 NW 12 12 1011.3 - - - - 10 - - - -
29/06:10am 26.4 NW 11 15 1011.2 - - - - 10 - - - -
29/06:00am 26.4 NW 11 13 1011.2 - - - - 10 - - - -
29/05:50am 26.4 WNW 10 12 1011.0 - - - - 10 - - - -
29/05:40am 26.4 NW 8 10 1011.1 - - - - 10 - - - -
29/05:30am 26.4 NW 7 10 1011.2 - - - - 10 - - - -
29/05:20am 26.4 WNW 7 7 1011.2 - - - - 10 - - - -
29/05:10am 26.3 NW 7 9 1011.2 - - - - 10 - - - -
29/05:00am 26.4 NW 7 8 1011.1 - - - - 10 - - - -
29/04:50am 26.4 NW 7 8 1011.0 - - - - 10 - - - -
29/04:40am 26.4 WNW 6 8 1011.0 - - - - 10 - - - -
29/04:30am 26.4 NW 6 6 1010.9 - - - - 10 - - - -
29/04:20am 26.4 WNW 5 7 1010.9 - - - - 10 - - - -
29/04:10am 26.2 NNW 6 6 1010.9 - - - - 10 - - - -
29/04:00am 26.3 NNW 7 7 1010.9 - - - - 10 - - - -
29/03:50am 26.3 N 7 9 1010.8 - - - Partly cloudy 10 - - - -
29/03:40am 26.3 N 7 7 1010.8 - - - Partly cloudy 10 - - - -
29/03:30am 26.3 N 7 8 1010.8 - - - Partly cloudy 10 - - - -
29/03:20am 26.4 N 9 7 1010.8 - - - - 10 - - - -
29/03:10am 26.4 N 7 11 1010.8 - - - - 10 - - - -
29/03:00am 26.4 N 8 12 1010.7 - - - - 10 - - - -
29/02:50am 26.4 N 7 11 1010.7 - - - - 10 - - - -
29/02:40am 26.4 N 8 9 1010.8 - - - - 10 - - - -
29/02:30am 26.4 N 7 10 1010.8 - - - - 10 - - - -
29/02:20am 26.4 N 8 12 1010.9 - - - - 10 - - - -
29/02:10am 26.4 NNW 8 10 1010.9 - - - - 10 - - - -
29/02:00am 26.4 N 8 9 1011.0 - - - - 10 - - - -
29/01:50am 26.4 N 7 10 1011.1 - - - - 10 - - - -
29/01:40am 26.5 N 7 9 1011.2 - - - - 10 - - - -
29/01:30am 26.5 N 6 10 1011.4 - - - - 10 - - - -
29/01:20am 26.5 N 6 8 1011.4 - - - - 10 - - - -
29/01:10am 26.6 N 4 7 1011.7 - - - - 10 - - - -
29/01:00am 26.6 NNW 3 4 1012.0 - - - - 10 - - - -
29/12:50am 26.6 NNW 3 4 1012.1 - - - - 10 - - - -
29/12:40am 26.7 NNW 3 3 1012.3 - - - - 10 - - - -
29/12:30am 26.7 NNW 3 4 1012.4 - - - - 10 - - - -
29/12:20am 26.7 NNW 3 3 1012.6 - - - - 10 - - - -
29/12:10am 26.8 NNW 3 4 1012.6 - - - - 10 - - - -
29/12:00am 26.8 NNW 3 4 1012.7 - - - - 10 - - - -
 
Date/Time
CST
Temp

°C
Wind Pressure Rain
since 9am
mm
Weather Cloud Vis
km
Sea
Height
m
Swell
Dir
 
Speed
knots
Gust
knots
hPa Trend Height
m
Period
s
Dir
28/11:50pm 26.8 NW 3 3 1012.7 - - - - 10 - - - -
28/11:40pm 26.8 NW 3 4 1012.8 - - - - 10 - - - -
28/11:30pm 26.8 WNW 3 3 1012.9 - - - - 10 - - - -
28/11:20pm 26.9 WNW 3 3 1013.0 - - - - 10 - - - -
28/11:10pm 26.9 WNW 3 4 1012.9 - - - - 10 - - - -
28/11:00pm 26.9 W 3 3 1013.0 - - - - 10 - - - -
28/10:50pm 26.9 W 3 4 1012.9 - - - - 10 - - - -
28/10:40pm 27.0 W 3 4 1012.9 - - - - 10 - - - -
28/10:30pm 27.0 WSW 3 4 1013.0 - - - - 10 - - - -
28/10:20pm 27.0 WSW 3 4 1012.8 - - - - 10 - - - -
28/10:10pm 27.0 W 3 4 1012.8 - - - - 10 - - - -
28/10:00pm 27.0 W 3 5 1012.7 - - - - 10 - - - -
28/09:50pm 27.0 SW 4 4 1012.6 - - - - 10 - - - -
28/09:40pm 27.0 WSW 4 5 1012.5 - - - - 10 - - - -
28/09:30pm 27.0 WSW 3 4 1012.4 - - - - 10 - - - -
28/09:20pm 27.0 W 2 3 1012.3 - - - - 10 - - - -
28/09:10pm 27.0 W 1 2 1012.2 - - - - 10 - - - -
28/09:00pm 27.0 W 1 1 1012.1 - - - - 10 - - - -
28/08:50pm 27.1 SW 2 2 1012.1 - - - - 10 - - - -
28/08:40pm 27.1 SSW 3 4 1012.0 - - - - 10 - - - -
28/08:30pm 27.1 S 3 4 1011.9 - - - - 10 - - - -
28/08:20pm 27.1 S 3 4 1011.9 - - - - 10 - - - -
28/08:10pm 27.2 S 3 3 1011.8 - - - - 10 - - - -
28/08:00pm 27.1 S 3 4 1011.7 - - - - 10 - - - -

Other Formats:

Comma delimited format used in spreadsheet applications
http://www.bom.gov.au/fwo/IDD60701/IDD60701.95100.axf

JavaScript Object Notation format (JSON) in row-major order
http://www.bom.gov.au/fwo/IDD60701/IDD60701.95100.json